Home > Weather > Bellinzona > Past weeks

Flag for Switzerland Weather for the Past 2 Weeks in Bellinzona, Ticino, Switzerland

Now
35 °F

Chilly.


Feels Like: 35 °F
Forecast: 36 / 48 °F
Wind: 2 mph from Southeast

Location: Locarno-Magadino

Current Time: Feb 8, 2016 at 10:01:32 AM

Latest Report: Feb 8, 2016 at 9:00 AM


Visibility: N/A

Pressure: 30.05 "Hg

Humidity: 94%

Dew point: 33 °F

Location of BellinzonaLocation

Historic Weather in Bellinzona — Graph

°F

Bellinzona Temperature Yesterday

Maximum temperature yesterday: 41 °F (at 5:00 AM)
Minimum temperature yesterday: 32 °F (at 6:00 PM)
Average temperature yesterday: 36 °F

High & Low Weather Summary for the Past Weeks

 TemperatureHumidityPressure
High57 °F (Feb 1, 1:00 PM)100% (Feb 2, 7:00 AM)30.63 "Hg (Feb 2, 7:00 AM)
Low25 °F (Jan 24, 8:00 AM)17% (Feb 4, 1:00 PM)29.89 "Hg (Feb 3, 4:00 PM)
Average41 °F76%30.30 "Hg
* Reported Jan 24 8:00 AM — Feb 8 8:00 AM, Bellinzona, Weather by CustomWeather, © 2016

Note: Actual official high and low records may vary slightly from our data, if they occured in-between our weather recording intervals... More about our weather records

Advertising

Bellinzona Weather History for the Previous 24 Hours

 ConditionsComfort  
Time TempWeatherWind HumidityBarometerVisibility
8:00 AM
Mon, Feb 8
35 °FChilly.1 mph94%30.04 "HgN/A
7:00 AM34 °FChilly.2 mph97%30.03 "HgN/A
6:00 AM35 °FChilly.2 mph92%30.01 "HgN/A
5:00 AM34 °FChilly.1 mph97%30.01 "HgN/A
3:00 AM35 °FChilly.3 mph92%30.01 "HgN/A
2:00 AM34 °FChilly.2 mph96%30.02 "HgN/A
12:00 AM34 °FChilly.2 mph95%30.03 "HgN/A
11:00 PM
Sun, Feb 7
34 °FChilly.5 mph94%30.04 "HgN/A
10:00 PM34 °FChilly.3 mph95%30.04 "HgN/A
9:00 PM33 °FChilly.2 mph97%30.04 "HgN/A
8:00 PM33 °FChilly.2 mph96%30.03 "HgN/A
7:00 PM32 °FChilly.2 mph98%30.01 "HgN/A
6:00 PM32 °FChilly.No wind98%30.01 "HgN/A
5:00 PM32 °FChilly.1 mph98%29.99 "HgN/A
4:00 PM33 °FChilly.2 mph96%29.99 "HgN/A
3:00 PM35 °FChilly.3 mph96%29.98 "HgN/A
2:00 PM36 °FChilly.6 mph94%29.99 "HgN/A
1:00 PM36 °FChilly.1 mph93%30.00 "HgN/A
12:00 PM38 °FChilly.1 mph90%30.02 "HgN/A
11:00 AM38 °FChilly.1 mph93%30.04 "HgN/A
10:00 AM38 °FChilly.2 mph91%30.06 "HgN/A
Weather by CustomWeather, © 2016

See weather overviewHow to use our weather pages